Location: Aufkirchen
(47.9603°N, 11.3653°E)
Time: 17:29:18
(UTC+01:00)

Transit 4A - Pass Details

Date: 02 December 2020
Orbit: 864 x 980 km, 66.8° (Epoch: 26 January)

Event Time Altitude Azimuth Distance (km) Brightness Sun altitude
Rises 12:58:02 0° 318° (NW) 3,691 10.7 18.9°
Reaches altitude 10° 13:01:44 10° 339° (NNW) 2,738 9.9 18.8°
Maximum altitude 13:05:40 17° 17° (NNE) 2,284 9.5 18.6°
Drops below altitude 10° 13:09:34 10° 55° (NE) 2,711 10.0 18.5°
Sets 13:13:12 0° 76° (ENE) 3,638 10.7 18.3°
